Retour au catalogue

BEIDOU 3

ActifNavigationGEO
NORAD 36287·PAYLOAD·🇨🇳 China

Lancé Jan 16, 2010 depuis Xichang Satellite Launch Center

Loading…

TLE

FraisSource: Space-Track

Époque: Sep 14, 2026, 09:20 UTC

1 36287U 10001A   26257.38912520 -.00000288  00000-0  00000-0 0  9999
2 36287   4.4994  60.0320 0002099 249.8945 323.9611  1.00268687 61066

Suivez BEIDOU 3 en temps réel avec AllMySat

Download on the App Store